When you browse on this site, cookies collect data to enhance your experience and personalize the content and advertising you see.
Visit our Privacy Policy to learn more. By continuing to use the site, you agree to this use of cookies and data.
EN

Hourly Weather Best

Today, 10 August, Monday

Time Temperature Precipitation Wind Pressure Humidity
00:00 +23°C° 0.1 mm 1 mps 760 mmHg 85%
01:00 +23°C° 0 mm 2 mps 760 mmHg 85%
02:00 +21°C° 0 mm 2 mps 760 mmHg 86%
03:00 +21°C° 0 mm 2 mps 760 mmHg 86%
04:00 +23°C° 0 mm 1 mps 759 mmHg 83%
05:00 +23°C° 0 mm 1 mps 759 mmHg 79%
06:00 +24°C° 0 mm 1 mps 759 mmHg 76%
07:00 +26°C° 0 mm 1 mps 759 mmHg 70%
08:00 +28°C° 0 mm 2 mps 759 mmHg 65%
09:00 +29°C° 0 mm 2 mps 759 mmHg 59%
10:00 +31°C° 0 mm 2 mps 759 mmHg 55%
11:00 +32°C° 0 mm 2 mps 759 mmHg 50%
12:00 +34°C° 0 mm 2 mps 759 mmHg 46%
13:00 +35°C° 0 mm 2 mps 759 mmHg 45%
14:00 +35°C° 0 mm 2 mps 759 mmHg 43%
15:00 +35°C° 0 mm 2 mps 758 mmHg 41%
16:00 +34°C° 0 mm 2 mps 758 mmHg 46%
17:00 +33°C° 0 mm 3 mps 758 mmHg 51%
18:00 +31°C° 0 mm 3 mps 758 mmHg 56%
19:00 +29°C° 0.1 mm 3 mps 759 mmHg 61%
20:00 +27°C° 0.1 mm 3 mps 759 mmHg 67%
21:00 +25°C° 0.1 mm 4 mps 759 mmHg 72%
22:00 +25°C° 0 mm 3 mps 760 mmHg 74%
23:00 +24°C° 0 mm 3 mps 760 mmHg 77%

Tomorrow, 11 August, Tuesday

Time Temperature Precipitation Wind Pressure Humidity
00:00 +22°C° 0 mm 3 mps 760 mmHg 80%
01:00 +22°C° 0 mm 3 mps 760 mmHg 81%
02:00 +21°C° 0 mm 3 mps 760 mmHg 82%
03:00 +21°C° 0 mm 3 mps 760 mmHg 84%
04:00 +22°C° 0 mm 3 mps 760 mmHg 82%
05:00 +22°C° 0 mm 3 mps 760 mmHg 81%
06:00 +24°C° 0 mm 3 mps 760 mmHg 79%
07:00 +26°C° 0 mm 3 mps 760 mmHg 72%
08:00 +28°C° 0 mm 4 mps 760 mmHg 65%
09:00 +30°C° 0 mm 4 mps 760 mmHg 58%
10:00 +32°C° 0 mm 4 mps 760 mmHg 53%
11:00 +33°C° 0 mm 4 mps 760 mmHg 48%
12:00 +34°C° 0 mm 4 mps 760 mmHg 43%
13:00 +35°C° 0 mm 4 mps 760 mmHg 42%
14:00 +35°C° 0 mm 3 mps 759 mmHg 41%
15:00 +35°C° 0 mm 3 mps 759 mmHg 39%
16:00 +34°C° 0 mm 3 mps 759 mmHg 45%
17:00 +33°C° 0 mm 3 mps 759 mmHg 50%
18:00 +31°C° 0 mm 3 mps 759 mmHg 55%
19:00 +30°C° 0 mm 3 mps 759 mmHg 57%
20:00 +28°C° 0 mm 3 mps 759 mmHg 59%
21:00 +27°C° 0 mm 4 mps 760 mmHg 61%
22:00 +26°C° 0.1 mm 3 mps 760 mmHg 65%
23:00 +25°C° 0.1 mm 3 mps 760 mmHg 69%

Day after tomorrow, 12 August, Wednesday

Time Temperature Precipitation Wind Pressure Humidity
00:00 +25°C° 0.1 mm 3 mps 760 mmHg 73%
01:00 +24°C° 0 mm 3 mps 760 mmHg 74%
02:00 +24°C° 0 mm 3 mps 760 mmHg 76%
03:00 +22°C° 0 mm 3 mps 759 mmHg 78%
04:00 +24°C° 0 mm 3 mps 759 mmHg 77%
05:00 +24°C° 0 mm 3 mps 759 mmHg 76%
06:00 +23°C° 0 mm 4 mps 759 mmHg 76%
07:00 +26°C° 0 mm 4 mps 759 mmHg 68%
08:00 +28°C° 0 mm 4 mps 759 mmHg 61%
09:00 +30°C° 0 mm 5 mps 759 mmHg 54%
10:00 +32°C° 0 mm 5 mps 759 mmHg 50%
11:00 +34°C° 0 mm 5 mps 759 mmHg 46%
12:00 +35°C° 0 mm 5 mps 759 mmHg 42%
13:00 +35°C° 0 mm 5 mps 759 mmHg 41%
14:00 +35°C° 0 mm 4 mps 758 mmHg 40%
15:00 +36°C° 0 mm 4 mps 758 mmHg 40%
16:00 +35°C° 0 mm 4 mps 758 mmHg 44%
17:00 +34°C° 0 mm 4 mps 758 mmHg 47%
18:00 +33°C° 0 mm 3 mps 757 mmHg 51%
19:00 +30°C° 0.2 mm 3 mps 758 mmHg 55%
20:00 +28°C° 0.2 mm 3 mps 758 mmHg 59%
21:00 +27°C° 0.2 mm 3 mps 758 mmHg 62%
22:00 +26°C° 0 mm 3 mps 758 mmHg 64%
23:00 +26°C° 0 mm 3 mps 758 mmHg 66%

13 August, Thursday

Time Temperature Precipitation Wind Pressure Humidity
00:00 +25°C° 0 mm 3 mps 758 mmHg 67%
01:00 +24°C° 0.4 mm 3 mps 758 mmHg 72%
02:00 +24°C° 0.4 mm 3 mps 757 mmHg 76%
03:00 +23°C° 0.4 mm 2 mps 757 mmHg 81%
04:00 +22°C° 0.2 mm 3 mps 757 mmHg 80%
05:00 +22°C° 0.2 mm 3 mps 757 mmHg 80%
06:00 +22°C° 0.2 mm 3 mps 757 mmHg 80%
07:00 +25°C° 0 mm 3 mps 757 mmHg 75%
08:00 +26°C° 0 mm 4 mps 757 mmHg 70%
09:00 +28°C° 0 mm 4 mps 757 mmHg 65%
10:00 +29°C° 0 mm 3 mps 757 mmHg 61%
11:00 +31°C° 0 mm 3 mps 757 mmHg 57%
12:00 +33°C° 0 mm 3 mps 757 mmHg 53%
13:00 +34°C° 0 mm 3 mps 757 mmHg 50%
14:00 +34°C° 0 mm 3 mps 757 mmHg 48%
15:00 +35°C° 0 mm 3 mps 757 mmHg 45%
16:00 +34°C° 0 mm 3 mps 757 mmHg 49%
17:00 +31°C° 0 mm 3 mps 757 mmHg 52%
18:00 +30°C° 0 mm 3 mps 757 mmHg 56%
19:00 +28°C° 0.3 mm 3 mps 757 mmHg 64%
20:00 +26°C° 0.3 mm 3 mps 757 mmHg 73%
21:00 +24°C° 0.3 mm 2 mps 757 mmHg 81%
22:00 +23°C° 0 mm 2 mps 758 mmHg 82%
23:00 +23°C° 0 mm 2 mps 758 mmHg 84%

14 August, Friday

Time Temperature Precipitation Wind Pressure Humidity
00:00 +22°C° 0 mm 1 mps 758 mmHg 85%
01:00 +22°C° 0.2 mm 1 mps 758 mmHg 86%
02:00 +22°C° 0.2 mm 1 mps 758 mmHg 86%
03:00 +20°C° 0.2 mm 2 mps 758 mmHg 87%
04:00 +21°C° 0 mm 2 mps 758 mmHg 85%
05:00 +21°C° 0 mm 2 mps 759 mmHg 83%
06:00 +21°C° 0 mm 3 mps 759 mmHg 82%
07:00 +24°C° 0 mm 3 mps 759 mmHg 74%
08:00 +25°C° 0 mm 3 mps 759 mmHg 67%
09:00 +27°C° 0 mm 4 mps 759 mmHg 59%
10:00 +28°C° 0 mm 4 mps 759 mmHg 55%
11:00 +29°C° 0 mm 4 mps 759 mmHg 52%
12:00 +29°C° 0 mm 4 mps 759 mmHg 48%
13:00 +29°C° 0.1 mm 4 mps 759 mmHg 52%
14:00 +28°C° 0.1 mm 4 mps 759 mmHg 55%
15:00 +28°C° 0.1 mm 4 mps 758 mmHg 58%
16:00 +27°C° 0.3 mm 4 mps 759 mmHg 64%
17:00 +26°C° 0.3 mm 3 mps 759 mmHg 70%
18:00 +24°C° 0.3 mm 3 mps 759 mmHg 75%
19:00 +24°C° 0 mm 2 mps 759 mmHg 78%
20:00 +23°C° 0 mm 2 mps 759 mmHg 81%
21:00 +21°C° 0 mm 2 mps 760 mmHg 83%
22:00 +22°C° 0 mm 1 mps 760 mmHg 84%
23:00 +21°C° 0 mm 1 mps 760 mmHg 85%

15 August, Saturday

Time Temperature Precipitation Wind Pressure Humidity
00:00 +21°C° 0 mm 1 mps 760 mmHg 86%
01:00 +21°C° 0 mm 1 mps 760 mmHg 88%
02:00 +20°C° 0 mm 1 mps 760 mmHg 89%
03:00 +20°C° 0 mm 1 mps 760 mmHg 91%
04:00 +19°C° 0 mm 2 mps 760 mmHg 89%
05:00 +20°C° 0 mm 2 mps 760 mmHg 88%
06:00 +20°C° 0 mm 2 mps 760 mmHg 86%
07:00 +21°C° 0 mm 3 mps 760 mmHg 79%
08:00 +24°C° 0 mm 3 mps 760 mmHg 72%
09:00 +25°C° 0 mm 3 mps 760 mmHg 64%
10:00 +26°C° 0 mm 3 mps 760 mmHg 60%
11:00 +27°C° 0 mm 3 mps 760 mmHg 56%
12:00 +28°C° 0 mm 3 mps 760 mmHg 51%
13:00 +28°C° 0 mm 2 mps 760 mmHg 51%
14:00 +28°C° 0 mm 2 mps 759 mmHg 51%
15:00 +28°C° 0 mm 2 mps 759 mmHg 51%
16:00 +28°C° 0 mm 2 mps 759 mmHg 54%
17:00 +27°C° 0 mm 1 mps 759 mmHg 58%
18:00 +26°C° 0 mm 1 mps 759 mmHg 61%
19:00 +25°C° 0 mm 1 mps 759 mmHg 66%
20:00 +24°C° 0 mm 1 mps 760 mmHg 70%
21:00 +22°C° 0 mm 1 mps 760 mmHg 74%
22:00 +21°C° 0 mm 1 mps 760 mmHg 77%
23:00 +21°C° 0 mm 1 mps 760 mmHg 79%
Show more